Vertical_Velocity
-1 -1 1 -1 -5 -3 -1 4 12 -2 -2 20 9 -5 -3 9 7 2 1 6 4 -5 -6 2 1 2 1 -2 1 -4 1 -1 -1 -1 -3 -1 -1 -1 -1 -1 -1 -2 -1 1 -2 -2 -1 -3 -2
-1 1 1 0 -1 0 -1 13 -3 -9 1 -0 8 4 -12 3 4 6 5 8 9 0 -6 2 -1 -2 0 -0 -2 1 0 2 2 -0 -1 -1 -1 -1 -1 -0 -1 -0 -0 -1 0 -1 -1 -2 -2
-2 -0 0 6 -3 3 4 9 -1 -16 -5 -54 3 -3 -6 -7 2 0 -3 1 4 1 -4 1 0 -2 0 -2 -1 4 2 3 0 0 0 -1 -0 0 -1 -2 -2 -1 -1 0 -1 -0 -1 0 -2
-1 0 1 2 5 5 -13 -2 7 -32 -16 -5 7 -11 -5 1 1 -1 -3 -1 2 -3 -4 -3 -2 -1 1 -0 -1 2 1 2 2 1 1 2 -0 -2 -2 -1 -1 -0 -1 0 -1 -1 -0 -1 -2
-0 -1 -3 -5 2 -4 -7 5 10 16 -6 5 2 -13 -13 -9 -4 3 -5 -2 -3 -2 -1 -2 -2 -3 -1 -1 -0 4 3 2 4 2 1 -1 -2 -1 -2 -2 0 -2 -1 -2 -3 -3 -2 0 -0
1 -0 1 -2 -6 11 2 -0 1 10 7 1 -9 1 -4 -7 -12 -1 -2 -0 -1 -1 -1 2 -2 -1 2 1 1 3 2 1 -1 0 0 -1 -1 -1 -2 -0 -1 -2 -4 -3 -0 -2 -1 -1 -0
-1 -3 -2 -5 -3 -2 16 3 4 -6 11 -4 6 -3 -1 -9 -0 -4 -2 -7 -4 -6 -1 -2 -1 2 3 2 1 1 2 3 -0 -0 -1 0 -1 -2 -1 -4 -4 -0 0 0 -2 0 2 -1 -3
1 -4 -4 0 -5 -12 19 -11 2 31 4 -6 -8 1 -3 -8 -6 2 -3 -2 -4 -3 -3 -1 -0 2 2 3 2 1 1 -1 -3 0 2 1 -1 -2 -2 -0 2 1 2 2 2 -0 -4 -1 -4
2 -5 2 -1 5 -10 18 14 22 16 -10 0 -4 -3 3 -2 -5 1 -4 -5 -1 -2 1 1 1 1 2 0 1 1 -0 -1 0 -1 -0 -0 -0 -1 1 1 -1 -2 -0 1 -5 -6 1 -0 3
6 -4 -3 5 -3 -5 31 7 16 10 8 -4 -2 4 3 -2 -9 -4 -4 0 -3 -5 -3 -0 1 2 2 2 1 -0 -1 -1 -0 1 1 -0 1 -0 -2 -3 -1 0 -0 -2 -1 -1 -2 -1 -2
1 -2 6 -4 -4 9 7 15 4 11 10 3 3 2 -1 -4 -1 -1 -3 1 4 -0 -6 0 2 1 1 -0 1 1 0 -1 2 0 0 -3 -1 -4 -0 -1 -1 2 -2 -4 -0 0 -2 3 -0
-8 2 3 -2 8 10 -4 0 6 7 11 4 7 -4 8 -2 -5 -1 1 -3 -1 -0 2 1 2 1 -1 1 1 1 -0 0 -1 1 -1 -1 -0 0 1 0 -0 0 -1 2 0 -6 -2 -9 -2
-3 -1 -2 -1 -1 5 0 -9 3 -5 19 4 -5 -6 -5 1 2 1 1 4 -1 -2 -1 -1 -4 -0 1 1 2 -2 -0 -0 -1 -1 -2 -1 1 -0 0 -1 -0 1 -0 -3 -1 3 0 1 -3
1 -9 -3 -8 -0 -1 -0 -1 5 -16 16 19 5 2 -3 -2 2 5 -5 -1 -2 -1 -4 -5 1 -1 0 1 -1 -3 -2 1 0 -1 -1 -0 1 0 4 -1 3 0 -1 -1 -3 -4 3 7 4
-1 -7 -11 -3 3 -17 1 -11 -17 0 5 -7 15 5 5 1 5 -8 -9 4 -7 -2 3 -3 -5 -4 -0 -1 1 1 0 -1 0 1 -1 -2 -1 -0 1 1 0 2 2 -2 -1 0 1 -5 -4
-1 1 -7 15 2 9 11 -36 -5 3 -1 -3 -3 26 7 5 -0 2 -1 2 -2 -1 -4 -3 -1 2 1 -3 -2 2 1 -1 1 -1 0 1 -2 -2 -2 -2 0 -2 -2 -4 -3 -4 -7 1 -1
1 -5 -1 -14 4 -4 11 -14 -25 4 5 -4 -9 -5 3 4 -6 -2 12 -4 3 -2 5 0 -8 0 4 -4 -1 -0 2 -0 1 -1 -2 -1 1 0 -1 0 -1 -6 -5 1 1 -2 -3 1 -1
-2 -2 -2 -3 2 3 7 2 -9 -2 -6 -2 5 -7 0 -10 -3 6 15 0 -0 3 3 6 -5 3 5 2 -1 -1 -2 -5 -0 -0 0 2 1 -0 -3 -0 -1 -3 -2 -0 -1 -1 -0 -0 6
1 2 1 -6 9 3 -1 -2 -9 -3 2 4 -1 2 -2 6 8 8 10 6 1 -3 5 -3 -2 3 0 1 -1 -1 -1 0 2 0 -1 0 -1 0 -1 -1 1 0 -2 1 1 1 2 4 6
4 3 -8 -5 -1 15 -4 -13 -2 -2 2 5 8 8 4 -6 -6 7 -3 -3 -1 -1 -4 -2 0 0 4 1 6 -3 1 1 0 1 2 3 4 1 -1 1 4 1 1 1 -1 4 2 -3 -1
1 4 -1 3 -12 14 -6 -14 -8 1 -3 -1 1 -4 1 -1 -8 1 -2 5 -2 -9 -4 -2 -1 -1 -0 4 1 2 0 3 3 5 4 5 4 5 3 1 2 0 -3 -2 1 6 -1 2 -5
-7 12 2 3 -2 3 5 -25 5 -6 -5 3 -5 -1 -3 2 6 0 4 6 -2 -3 -4 -4 4 3 4 6 2 -0 4 2 9 3 2 2 4 4 3 1 -1 1 -1 -5 16 -1 15 5 -3
-12 4 -2 3 -3 -4 18 -5 -6 4 -2 -9 -7 -1 -9 -5 -3 -5 2 4 2 -4 -6 -3 1 3 2 -2 4 2 -3 -0 3 4 4 3 2 0 0 1 4 -1 -6 7 -8 95 -6 -11 -9
12 -3 4 4 2 -0 5 -4 -24 1 -0 -2 5 -2 3 0 2 3 6 5 1 0 5 6 6 7 5 1 1 0 4 3 -1 4 3 1 0 5 3 2 3 -6 -7 12 30 73 23 -21 1
8 5 -3 -3 1 -9 8 1 -20 5 4 5 -13 -10 -10 -7 -5 1 1 -1 2 5 4 2 3 -0 -2 -4 -2 1 2 2 2 1 2 2 3 2 2 0 -1 -3 14 23 66 13 -5 -24 5
-5 2 -6 -5 -2 -5 5 -6 -25 5 -0 -3 -3 14 -2 -0 2 8 8 6 10 11 11 6 4 -0 2 3 4 -0 -3 -1 -2 -1 2 2 0 1 -0 -2 -2 12 -6 -3 50 1 22 -5 -1
-6 -12 16 7 6 3 -7 -7 -20 -11 13 -0 -13 -1 0 7 6 5 1 0 4 7 -5 -3 -0 -1 4 3 2 4 3 2 0 -2 -3 -3 1 2 1 -2 6 0 1 75 -2 14 -1 6 -3
-13 13 1 3 -1 -0 -3 2 -18 -8 -15 -16 2 7 1 -8 7 2 -7 -8 -4 -2 0 -3 -2 3 2 2 1 -2 -1 -4 -3 -0 1 0 1 4 -1 7 6 15 31 18 -5 -3 2 -1 -1
2 0 1 5 4 -5 -2 -9 -12 0 -7 -14 -7 -3 -1 7 7 -8 2 5 1 -8 -9 5 3 1 -4 -3 6 1 -0 -1 -3 -1 0 1 -3 1 5 6 4 9 2 24 -5 -6 -2 -1 -1
17 1 8 12 -9 3 2 -24 -11 0 -9 -2 -0 -12 -9 -9 4 19 12 -5 -7 -4 -6 -7 -7 -0 -6 6 3 -0 -2 -2 -4 -3 2 3 1 6 2 4 31 -10 3 -1 -1 8 7 3 -2
Height
3171 3173 3173 3174 3180 3177 3176 3180 3181 3180 3181 3181 3177 3177 3177 3175 3175 3179 3175 3176 3179 3180 3181 3184 3186 3188 3190 3191 3193 3195 3196 3196 3196 3195 3195 3194 3194 3193 3194 3194 3194 3194 3194 3193 3193 3192 3191 3190 3189
3171 3173 3174 3175 3177 3175 3176 3180 3181 3181 3180 3182 3179 3177 3177 3177 3175 3175 3175 3175 3179 3180 3181 3183 3185 3187 3189 3190 3192 3194 3194 3195 3195 3195 3194 3194 3194 3194 3194 3195 3195 3195 3194 3193 3193 3193 3192 3191 3190
3172 3173 3175 3174 3175 3176 3177 3176 3177 3183 3181 3178 3179 3177 3176 3178 3177 3176 3175 3177 3179 3179 3180 3181 3184 3186 3187 3189 3190 3192 3193 3194 3195 3194 3194 3193 3193 3194 3194 3194 3194 3194 3194 3194 3193 3192 3192 3191 3189
3173 3175 3176 3174 3175 3177 3177 3177 3178 3177 3178 3177 3178 3176 3178 3176 3178 3178 3178 3178 3179 3179 3179 3181 3183 3185 3186 3188 3190 3191 3192 3192 3193 3193 3193 3192 3193 3193 3193 3193 3193 3193 3193 3193 3192 3192 3191 3190 3189
3174 3176 3176 3173 3172 3175 3176 3176 3176 3175 3174 3177 3177 3177 3178 3178 3178 3178 3178 3178 3179 3179 3179 3181 3182 3184 3185 3187 3188 3189 3190 3191 3191 3191 3191 3191 3192 3192 3193 3193 3192 3192 3192 3191 3191 3191 3190 3189 3188
3175 3177 3175 3173 3171 3173 3175 3175 3176 3176 3177 3176 3177 3175 3176 3176 3178 3179 3179 3178 3177 3178 3180 3181 3182 3182 3183 3185 3185 3187 3188 3188 3189 3189 3189 3190 3191 3191 3192 3192 3192 3191 3191 3191 3191 3190 3190 3189 3188
3175 3175 3174 3172 3172 3171 3173 3173 3174 3173 3173 3175 3175 3175 3175 3176 3177 3178 3178 3178 3178 3179 3179 3181 3181 3181 3183 3183 3184 3185 3186 3186 3187 3188 3189 3190 3190 3191 3191 3191 3190 3190 3190 3190 3189 3188 3187 3187 3187
3175 3175 3173 3173 3171 3169 3171 3172 3173 3174 3173 3172 3175 3175 3174 3174 3174 3175 3176 3176 3177 3178 3179 3180 3180 3181 3182 3183 3183 3184 3184 3185 3185 3186 3187 3187 3188 3189 3188 3188 3188 3187 3188 3186 3186 3186 3185 3185 3185
3174 3174 3172 3174 3173 3170 3173 3173 3174 3173 3170 3171 3172 3173 3173 3172 3174 3174 3175 3176 3178 3178 3178 3178 3179 3180 3180 3181 3181 3182 3182 3183 3183 3184 3184 3185 3185 3186 3186 3186 3185 3185 3184 3183 3184 3184 3183 3183 3183
3174 3172 3171 3174 3174 3171 3174 3174 3174 3174 3169 3168 3170 3171 3172 3171 3172 3173 3174 3175 3176 3177 3177 3177 3177 3178 3178 3178 3179 3179 3180 3181 3181 3181 3182 3182 3182 3183 3183 3183 3183 3182 3182 3182 3183 3182 3182 3182 3181
3171 3169 3170 3169 3172 3173 3172 3172 3171 3171 3170 3168 3169 3169 3170 3170 3170 3171 3172 3173 3175 3175 3175 3176 3176 3176 3176 3176 3176 3177 3178 3179 3179 3179 3179 3179 3180 3180 3180 3181 3180 3180 3179 3180 3179 3178 3179 3178 3178
3166 3166 3166 3164 3166 3170 3169 3168 3168 3169 3167 3166 3166 3167 3166 3166 3167 3168 3170 3171 3172 3172 3173 3173 3173 3174 3174 3174 3174 3174 3175 3175 3175 3176 3176 3176 3177 3178 3178 3177 3177 3177 3177 3176 3175 3176 3176 3176 3177
3162 3163 3161 3161 3161 3163 3165 3164 3164 3164 3165 3163 3163 3163 3164 3163 3164 3165 3166 3167 3168 3168 3169 3169 3170 3171 3171 3171 3171 3171 3171 3172 3172 3172 3173 3173 3174 3174 3174 3175 3174 3174 3173 3172 3172 3173 3173 3173 3173
3161 3159 3158 3158 3158 3159 3160 3160 3159 3160 3162 3161 3159 3158 3159 3160 3161 3161 3161 3163 3164 3164 3164 3166 3167 3167 3168 3168 3168 3169 3168 3168 3168 3169 3169 3169 3171 3171 3170 3171 3170 3170 3169 3169 3169 3170 3171 3169 3168
3155 3155 3156 3157 3158 3156 3158 3153 3155 3156 3157 3158 3156 3155 3155 3155 3156 3156 3156 3156 3159 3159 3159 3160 3162 3163 3165 3165 3166 3166 3165 3164 3164 3165 3165 3166 3167 3167 3167 3167 3167 3166 3166 3166 3166 3167 3166 3165 3164
3153 3154 3153 3154 3154 3154 3155 3145 3149 3152 3152 3152 3152 3154 3151 3150 3150 3151 3152 3151 3152 3152 3154 3156 3158 3160 3160 3161 3162 3163 3162 3161 3161 3161 3161 3162 3163 3163 3163 3164 3163 3163 3162 3162 3162 3161 3160 3159 3158
3152 3151 3151 3150 3151 3149 3149 3144 3143 3145 3146 3146 3147 3147 3146 3147 3147 3147 3148 3147 3145 3146 3150 3153 3155 3156 3157 3156 3157 3158 3159 3159 3159 3158 3158 3158 3159 3159 3159 3158 3158 3157 3157 3156 3155 3155 3155 3153 3152
3151 3150 3149 3146 3146 3146 3143 3139 3137 3138 3141 3141 3143 3142 3142 3142 3143 3144 3144 3143 3144 3144 3147 3148 3151 3151 3152 3152 3152 3152 3153 3155 3155 3155 3155 3154 3154 3154 3154 3153 3151 3150 3149 3149 3149 3149 3148 3147 3146
3149 3147 3145 3143 3143 3141 3138 3135 3135 3135 3136 3137 3138 3138 3137 3137 3140 3140 3140 3140 3140 3142 3142 3144 3145 3146 3147 3148 3148 3148 3149 3149 3149 3150 3150 3149 3148 3147 3147 3146 3145 3144 3142 3142 3142 3142 3142 3141 3141
3146 3145 3142 3139 3138 3138 3133 3129 3130 3131 3132 3133 3131 3130 3130 3130 3131 3133 3134 3132 3134 3137 3137 3139 3141 3142 3142 3143 3145 3144 3144 3143 3143 3144 3144 3143 3142 3141 3140 3139 3139 3137 3136 3135 3135 3135 3134 3134 3135
3143 3143 3140 3138 3134 3131 3129 3123 3125 3127 3126 3126 3125 3123 3121 3123 3124 3126 3128 3127 3129 3131 3132 3133 3135 3137 3138 3139 3139 3139 3138 3138 3138 3138 3138 3138 3137 3136 3134 3133 3132 3130 3128 3127 3125 3123 3122 3123 3123
3136 3140 3139 3137 3133 3127 3127 3124 3119 3119 3118 3118 3118 3117 3116 3114 3118 3121 3124 3124 3124 3126 3128 3128 3129 3131 3132 3133 3132 3132 3132 3131 3132 3131 3130 3129 3128 3127 3126 3125 3124 3123 3120 3117 3115 3113 3113 3110 3115
3132 3136 3135 3135 3133 3128 3124 3127 3112 3115 3113 3113 3114 3112 3110 3110 3112 3116 3119 3120 3122 3121 3122 3123 3125 3126 3127 3127 3126 3125 3125 3125 3125 3123 3122 3121 3120 3118 3116 3115 3115 3115 3112 3107 3104 3081 3102 3098 3102
3132 3132 3132 3131 3132 3129 3121 3126 3113 3113 3113 3112 3112 3108 3104 3107 3110 3112 3115 3116 3118 3119 3118 3118 3120 3121 3120 3120 3120 3119 3118 3117 3116 3116 3115 3113 3111 3110 3108 3106 3106 3105 3103 3098 3096 3084 3088 3092 3096
3127 3129 3129 3129 3130 3127 3121 3121 3114 3113 3113 3111 3110 3109 3108 3107 3108 3110 3111 3112 3112 3113 3115 3115 3114 3114 3114 3114 3113 3113 3111 3109 3108 3107 3106 3104 3102 3101 3101 3099 3096 3095 3094 3093 3088 3069 3083 3085 3090
3119 3123 3123 3126 3125 3120 3119 3116 3113 3111 3109 3109 3108 3109 3108 3108 3109 3109 3111 3112 3114 3112 3109 3108 3107 3107 3107 3106 3106 3106 3105 3104 3102 3100 3098 3096 3096 3095 3094 3090 3089 3089 3090 3085 3087 3079 3077 3078 3082
3116 3116 3115 3116 3116 3116 3115 3111 3110 3108 3108 3106 3107 3107 3108 3108 3106 3105 3104 3105 3106 3106 3106 3103 3100 3100 3100 3100 3099 3098 3098 3097 3094 3091 3089 3087 3087 3086 3085 3083 3083 3081 3080 3054 3071 3075 3072 3073 3074
3107 3112 3114 3114 3113 3113 3106 3105 3106 3105 3106 3105 3105 3104 3103 3105 3102 3100 3099 3099 3099 3100 3100 3098 3097 3096 3095 3095 3093 3091 3089 3086 3082 3080 3078 3077 3076 3076 3076 3076 3076 3076 3073 3068 3068 3068 3067 3065 3066
3101 3104 3106 3107 3103 3103 3105 3101 3102 3102 3102 3101 3101 3102 3101 3099 3098 3097 3094 3091 3090 3091 3092 3092 3091 3090 3088 3086 3085 3084 3081 3078 3073 3070 3069 3068 3067 3067 3067 3069 3067 3067 3064 3060 3060 3060 3059 3056 3055
3097 3097 3099 3098 3095 3093 3094 3093 3098 3097 3098 3096 3095 3095 3095 3093 3090 3087 3085 3084 3083 3082 3082 3083 3084 3082 3081 3078 3076 3075 3073 3070 3067 3064 3061 3060 3058 3059 3060 3060 3054 3059 3057 3055 3054 3052 3048 3047 3044